Location: Newark
(34.0131°N, 4.3314°W)
Time: 15:08:26
(UTC+00:00)

Transit 2A Rocket - Pass Details

Date: 29 October 2019
Orbit: 594 x 909 km, 66.7° (Epoch: 17 November)

Event Time Altitude Azimuth Distance (km) Brightness Sun altitude
Rises 10:54:55 0° 354° (N) 2,836 7.5 40.0°
Reaches altitude 10° 10:58:12 10° 21° (NNE) 1,938 6.9 40.2°
Maximum altitude 11:00:26 14° 52° (NE) 1,715 6.8 40.4°
Drops below altitude 10° 11:02:42 10° 84° (E) 1,968 7.4 40.6°
Sets 11:06:04 0° 110° (ESE) 2,915 8.4 40.8°
